Wetterdaten: Samstag, 26.05.2012
Datum Zeit Temperatur Luftfeuchte Regen Wind Richtung Richtung Taupunkt Windchill Windben
26.05.2012 00:00 6,4 C 77 % 0,0 l/m 0,0 km/h (0 Bft) NO 45 2,7 C 5,7 C 0,0 km/h (0 Bft)
26.05.2012 00:05 6,3 C 77 % 0,0 l/m 0,0 km/h (0 Bft) O-NO 67 2,6 C 5,7 C 0,0 km/h (0 Bft)
26.05.2012 00:10 6,1 C 77 % 0,0 l/m 0,0 km/h (0 Bft) NW 315 2,4 C 5,7 C 0,0 km/h (0 Bft)
26.05.2012 00:15 6,2 C 78 % 0,0 l/m 0,0 km/h (0 Bft) N-NW 337 2,7 C 5,6 C 0,0 km/h (0 Bft)
26.05.2012 00:20 6,3 C 78 % 0,0 l/m 0,0 km/h (0 Bft) N-NO 22 2,8 C 5,6 C 0,0 km/h (0 Bft)
26.05.2012 00:25 6,3 C 78 % 0,0 l/m 0,0 km/h (0 Bft) N-NO 22 2,8 C 5,8 C 0,0 km/h (0 Bft)
26.05.2012 00:30 6,2 C 79 % 0,0 l/m 0,0 km/h (0 Bft) S-SW 202 2,8 C 6,0 C 0,0 km/h (0 Bft)
26.05.2012 00:35 6,5 C 79 % 0,0 l/m 0,0 km/h (0 Bft) NO 45 3,1 C 6,0 C 0,0 km/h (0 Bft)
26.05.2012 00:40 6,3 C 79 % 0,0 l/m 0,0 km/h (0 Bft) S-SO 157 2,9 C 5,9 C 0,0 km/h (0 Bft)
26.05.2012 00:45 6,2 C 79 % 0,0 l/m 0,0 km/h (0 Bft) SO 135 2,8 C 5,8 C 0,0 km/h (0 Bft)
26.05.2012 00:50 6,4 C 80 % 0,0 l/m 0,2 km/h (0 Bft) N-NW 337 3,2 C 5,7 C 2,3 km/h (1 Bft)
26.05.2012 00:55 6,8 C 84 % 0,0 l/m 0,6 km/h (0 Bft) N 360 4,3 C 5,7 C 2,6 km/h (1 Bft)
26.05.2012 01:00 7,1 C 84 % 0,0 l/m 0,6 km/h (0 Bft) N-NO 22 4,6 C 6,1 C 0,0 km/h (0 Bft)
26.05.2012 01:05 7,2 C 83 % 0,0 l/m 0,5 km/h (0 Bft) N 360 4,5 C 6,2 C 0,0 km/h (0 Bft)
26.05.2012 01:10 7,3 C 81 % 0,0 l/m 0,0 km/h (0 Bft) N-NO 22 4,3 C 6,3 C 0,0 km/h (0 Bft)
26.05.2012 01:15 7,3 C 80 % 0,0 l/m 0,0 km/h (0 Bft) N-NO 22 4,1 C 6,3 C 0,0 km/h (0 Bft)
26.05.2012 01:20 7,2 C 79 % 0,0 l/m 0,0 km/h (0 Bft) NO 45 3,8 C 6,1 C 0,0 km/h (0 Bft)
26.05.2012 01:25 7,2 C 79 % 0,0 l/m 0,3 km/h (0 Bft) N-NO 22 3,8 C 6,1 C 0,0 km/h (0 Bft)
26.05.2012 01:30 7,0 C 79 % 0,0 l/m 0,3 km/h (0 Bft) W 270 3,6 C 6,0 C 3,1 km/h (1 Bft)
26.05.2012 01:35 6,3 C 79 % 0,0 l/m 0,0 km/h (0 Bft) N-NO 22 2,9 C 5,7 C 0,0 km/h (0 Bft)
26.05.2012 01:40 5,9 C 79 % 0,0 l/m 0,0 km/h (0 Bft) S-SO 157 2,5 C 5,5 C 0,0 km/h (0 Bft)
26.05.2012 01:45 5,5 C 79 % 0,0 l/m 0,0 km/h (0 Bft) O-SO 112 2,2 C 5,2 C 0,0 km/h (0 Bft)
26.05.2012 01:50 5,4 C 80 % 0,0 l/m 0,0 km/h (0 Bft) N-NO 22 2,2 C 4,8 C 0,0 km/h (0 Bft)
26.05.2012 01:55 5,5 C 81 % 0,0 l/m 0,0 km/h (0 Bft) W 270 2,5 C 4,8 C 0,0 km/h (0 Bft)
26.05.2012 02:00 5,4 C 81 % 0,0 l/m 0,0 km/h (0 Bft) NO 45 2,4 C 4,7 C 0,0 km/h (0 Bft)
26.05.2012 02:05 5,3 C 82 % 0,0 l/m 0,0 km/h (0 Bft) N 360 2,5 C 4,6 C 0,0 km/h (0 Bft)
26.05.2012 02:10 5,1 C 82 % 0,0 l/m 0,0 km/h (0 Bft) S-SW 202 2,3 C 4,4 C 0,0 km/h (0 Bft)
26.05.2012 02:15 4,8 C 82 % 0,0 l/m 0,0 km/h (0 Bft) S-SW 202 2,0 C 4,3 C 0,0 km/h (0 Bft)
26.05.2012 02:20 4,8 C 83 % 0,0 l/m 0,0 km/h (0 Bft) N-NO 22 2,2 C 4,2 C 0,0 km/h (0 Bft)
26.05.2012 02:25 4,8 C 83 % 0,0 l/m 0,0 km/h (0 Bft) O-NO 67 2,2 C 4,1 C 0,0 km/h (0 Bft)
26.05.2012 02:30 4,8 C 83 % 0,0 l/m 0,0 km/h (0 Bft) S 180 2,2 C 4,1 C 0,0 km/h (0 Bft)
26.05.2012 02:35 4,7 C 83 % 0,0 l/m 0,0 km/h (0 Bft) W-SW 247 2,1 C 4,1 C 0,0 km/h (0 Bft)
26.05.2012 02:40 4,5 C 84 % 0,0 l/m 0,0 km/h (0 Bft) W-NW 292 2,0 C 3,8 C 0,0 km/h (0 Bft)
26.05.2012 02:45 4,4 C 84 % 0,0 l/m 0,0 km/h (0 Bft) W-NW 292 1,9 C 3,7 C 0,0 km/h (0 Bft)
26.05.2012 02:50 4,2 C 84 % 0,0 l/m 0,0 km/h (0 Bft) W-NW 292 1,7 C 3,4 C 0,0 km/h (0 Bft)
26.05.2012 02:55 4,2 C 84 % 0,0 l/m 0,0 km/h (0 Bft) NO 45 1,7 C 3,4 C 0,0 km/h (0 Bft)
26.05.2012 03:00 4,4 C 85 % 0,0 l/m 0,0 km/h (0 Bft) NO 45 2,1 C 3,4 C 0,0 km/h (0 Bft)
26.05.2012 03:05 4,4 C 85 % 0,0 l/m 0,0 km/h (0 Bft) NW 315 2,1 C 3,4 C 0,0 km/h (0 Bft)
26.05.2012 03:10 4,2 C 85 % 0,0 l/m 0,0 km/h (0 Bft) W-SW 247 1,9 C 3,4 C 0,0 km/h (0 Bft)
26.05.2012 03:15 4,0 C 85 % 0,0 l/m 0,0 km/h (0 Bft) N 360 1,7 C 3,4 C 0,0 km/h (0 Bft)
26.05.2012 03:20 4,0 C 86 % 0,0 l/m 0,0 km/h (0 Bft) S-SO 157 1,9 C 3,2 C 0,0 km/h (0 Bft)
26.05.2012 03:25 4,0 C 86 % 0,0 l/m 0,0 km/h (0 Bft) N-NO 22 1,9 C 3,1 C 0,0 km/h (0 Bft)
26.05.2012 03:30 4,1 C 86 % 0,0 l/m 0,0 km/h (0 Bft) W-SW 247 2,0 C 3,1 C 0,0 km/h (0 Bft)
26.05.2012 03:35 3,9 C 86 % 0,0 l/m 0,0 km/h (0 Bft) S-SW 202 1,8 C 3,2 C 0,0 km/h (0 Bft)
26.05.2012 03:40 3,7 C 86 % 0,0 l/m 0,0 km/h (0 Bft) S-SW 202 1,6 C 3,1 C 0,0 km/h (0 Bft)
26.05.2012 03:45 3,8 C 87 % 0,0 l/m 0,0 km/h (0 Bft) S-SW 202 1,8 C 3,1 C 0,0 km/h (0 Bft)
26.05.2012 03:50 4,1 C 87 % 0,0 l/m 0,0 km/h (0 Bft) NO 45 2,1 C 3,2 C 0,0 km/h (0 Bft)
26.05.2012 03:55 4,2 C 87 % 0,0 l/m 0,0 km/h (0 Bft) N-NO 22 2,2 C 3,3 C 0,0 km/h (0 Bft)
26.05.2012 04:00 4,1 C 87 % 0,0 l/m 0,0 km/h (0 Bft) O 90 2,1 C 3,3 C 0,0 km/h (0 Bft)
26.05.2012 04:05 4,1 C 88 % 0,0 l/m 0,0 km/h (0 Bft) N-NO 22 2,3 C 3,2 C 0,0 km/h (0 Bft)
26.05.2012 04:10 5,1 C 88 % 0,0 l/m 0,5 km/h (0 Bft) N 360 3,3 C 3,4 C 2,4 km/h (1 Bft)
26.05.2012 04:15 4,8 C 88 % 0,0 l/m 0,6 km/h (0 Bft) N 360 3,0 C 3,6 C 0,0 km/h (0 Bft)
26.05.2012 04:20 4,4 C 88 % 0,0 l/m 0,2 km/h (0 Bft) W-SW 247 2,6 C 3,4 C 0,0 km/h (0 Bft)
26.05.2012 04:25 4,1 C 88 % 0,0 l/m 0,0 km/h (0 Bft) N 360 2,3 C 3,3 C 0,0 km/h (0 Bft)
26.05.2012 04:30 4,2 C 88 % 0,0 l/m 0,0 km/h (0 Bft) N 360 2,4 C 3,1 C 0,0 km/h (0 Bft)
26.05.2012 04:35 3,9 C 88 % 0,0 l/m 0,0 km/h (0 Bft) W 270 2,1 C 3,1 C 0,0 km/h (0 Bft)
26.05.2012 04:40 3,5 C 88 % 0,0 l/m 0,0 km/h (0 Bft) N 360 1,7 C 2,9 C 0,0 km/h (0 Bft)
26.05.2012 04:45 3,4 C 88 % 0,0 l/m 0,0 km/h (0 Bft) O 90 1,6 C 2,7 C 0,0 km/h (0 Bft)
26.05.2012 04:50 3,7 C 88 % 0,0 l/m 0,0 km/h (0 Bft) N-NW 337 1,9 C 2,7 C 0,0 km/h (0 Bft)
26.05.2012 04:55 3,5 C 88 % 0,0 l/m 0,0 km/h (0 Bft) W-NW 292 1,7 C 2,8 C 0,0 km/h (0 Bft)
26.05.2012 05:00 3,1 C 88 % 0,0 l/m 0,0 km/h (0 Bft) S-SW 202 1,3 C 2,6 C 0,0 km/h (0 Bft)
26.05.2012 05:05 3,1 C 88 % 0,0 l/m 0,0 km/h (0 Bft) S-SW 202 1,3 C 2,4 C 0,0 km/h (0 Bft)
26.05.2012 05:10 3,1 C 88 % 0,0 l/m 0,0 km/h (0 Bft) N-NW 337 1,3 C 2,3 C 0,0 km/h (0 Bft)
26.05.2012 05:15 3,1 C 88 % 0,0 l/m 0,0 km/h (0 Bft) W-NW 292 1,3 C 2,3 C 0,0 km/h (0 Bft)
26.05.2012 05:20 3,2 C 88 % 0,0 l/m 0,0 km/h (0 Bft) O-SO 112 1,4 C 2,4 C 0,0 km/h (0 Bft)
26.05.2012 05:25 3,0 C 88 % 0,0 l/m 0,0 km/h (0 Bft) O-SO 112 1,2 C 2,4 C 0,0 km/h (0 Bft)
26.05.2012 05:30 3,9 C 89 % 0,0 l/m 0,0 km/h (0 Bft) W-SW 247 2,3 C 2,7 C 0,0 km/h (0 Bft)
26.05.2012 05:35 3,4 C 89 % 0,0 l/m 0,0 km/h (0 Bft) S 180 1,8 C 2,8 C 0,0 km/h (0 Bft)
26.05.2012 05:40 3,1 C 89 % 0,0 l/m 0,0 km/h (0 Bft) S-SW 202 1,5 C 2,6 C 0,0 km/h (0 Bft)
26.05.2012 05:45 3,2 C 89 % 0,0 l/m 0,0 km/h (0 Bft) W 270 1,6 C 2,6 C 0,0 km/h (0 Bft)
26.05.2012 05:50 2,9 C 89 % 0,0 l/m 0,0 km/h (0 Bft) W 270 1,3 C 2,5 C 0,0 km/h (0 Bft)
26.05.2012 05:55 3,1 C 89 % 0,0 l/m 0,0 km/h (0 Bft) NO 45 1,5 C 2,9 C 0,0 km/h (0 Bft)
26.05.2012 06:00 3,3 C 89 % 0,0 l/m 0,0 km/h (0 Bft) N-NO 22 1,7 C 3,8 C 0,0 km/h (0 Bft)
26.05.2012 06:05 3,3 C 89 % 0,0 l/m 0,0 km/h (0 Bft) N-NO 22 1,7 C 4,5 C 0,0 km/h (0 Bft)
26.05.2012 06:10 3,7 C 89 % 0,0 l/m 0,0 km/h (0 Bft) N-NO 22 2,1 C 5,5 C 0,0 km/h (0 Bft)
26.05.2012 06:15 3,8 C 89 % 0,0 l/m 0,0 km/h (0 Bft) O 90 2,2 C 6,0 C 0,0 km/h (0 Bft)
26.05.2012 06:20 5,2 C 88 % 0,0 l/m 0,0 km/h (0 Bft) S 180 3,4 C 6,3 C 0,0 km/h (0 Bft)
26.05.2012 06:25 5,6 C 88 % 0,0 l/m 0,0 km/h (0 Bft) S 180 3,8 C 6,8 C 0,0 km/h (0 Bft)
26.05.2012 06:30 6,0 C 86 % 0,0 l/m 0,0 km/h (0 Bft) S 180 3,8 C 8,0 C 0,0 km/h (0 Bft)
26.05.2012 06:35 5,8 C 86 % 0,0 l/m 0,0 km/h (0 Bft) W-SW 247 3,6 C 8,7 C 0,0 km/h (0 Bft)
26.05.2012 06:40 8,1 C 84 % 0,0 l/m 0,0 km/h (0 Bft) S-SW 202 5,6 C 10,3 C 0,0 km/h (0 Bft)
26.05.2012 06:45 9,1 C 80 % 0,0 l/m 0,0 km/h (0 Bft) N-NW 337 5,8 C 11,1 C 0,0 km/h (0 Bft)
26.05.2012 06:50 10,1 C 76 % 0,0 l/m 0,0 km/h (0 Bft) W-SW 247 6,1 C 11,9 C 0,0 km/h (0 Bft)
26.05.2012 06:55 10,9 C 74 % 0,0 l/m 0,0 km/h (0 Bft) S-SO 157 6,5 C 12,6 C 0,0 km/h (0 Bft)
26.05.2012 07:00 11,8 C 71 % 0,0 l/m 0,0 km/h (0 Bft) NO 45 6,7 C 13,3 C 0,0 km/h (0 Bft)
26.05.2012 07:05 12,8 C 71 % 0,0 l/m 0,0 km/h (0 Bft) W-SW 247 7,7 C 13,8 C 0,0 km/h (0 Bft)
26.05.2012 07:10 13,1 C 67 % 0,0 l/m 0,0 km/h (0 Bft) W-SW 247 7,1 C 14,8 C 0,0 km/h (0 Bft)
26.05.2012 07:15 13,6 C 65 % 0,0 l/m 0,0 km/h (0 Bft) O-NO 67 7,1 C 15,6 C 0,0 km/h (0 Bft)
26.05.2012 07:20 14,2 C 61 % 0,0 l/m 0,0 km/h (0 Bft) S 180 6,8 C 16,4 C 0,0 km/h (0 Bft)
26.05.2012 07:25 14,4 C 59 % 0,0 l/m 0,0 km/h (0 Bft) O-SO 112 6,5 C 16,9 C 0,0 km/h (0 Bft)
26.05.2012 07:30 15,1 C 59 % 0,0 l/m 0,0 km/h (0 Bft) N-NW 337 7,1 C 17,6 C 0,0 km/h (0 Bft)
26.05.2012 07:35 15,5 C 59 % 0,0 l/m 0,0 km/h (0 Bft) N 360 7,5 C 18,0 C 0,0 km/h (0 Bft)
26.05.2012 07:40 15,7 C 57 % 0,0 l/m 0,0 km/h (0 Bft) S-SW 202 7,2 C 18,2 C 0,0 km/h (0 Bft)
26.05.2012 07:45 15,8 C 55 % 0,0 l/m 0,0 km/h (0 Bft) NO 45 6,8 C 18,4 C 0,0 km/h (0 Bft)
26.05.2012 07:50 16,4 C 54 % 0,0 l/m 0,0 km/h (0 Bft) S 180 7,1 C 18,9 C 0,0 km/h (0 Bft)
26.05.2012 07:55 17,0 C 53 % 0,0 l/m 0,0 km/h (0 Bft) N-NW 337 7,4 C 19,4 C 0,0 km/h (0 Bft)
26.05.2012 08:00 16,9 C 49 % 0,0 l/m 0,5 km/h (0 Bft) W-NW 292 6,1 C 19,2 C 6,1 km/h (2 Bft)
26.05.2012 08:05 16,9 C 50 % 0,0 l/m 1,3 km/h (1 Bft) N 360 6,4 C 18,7 C 2,9 km/h (1 Bft)
26.05.2012 08:10 17,5 C 48 % 0,0 l/m 3,4 km/h (1 Bft) W-NW 292 6,4 C 17,8 C 6,4 km/h (2 Bft)
26.05.2012 08:15 17,2 C 48 % 0,0 l/m 3,5 km/h (1 Bft) W-SW 247 6,1 C 17,6 C 2,4 km/h (1 Bft)
26.05.2012 08:20 17,6 C 48 % 0,0 l/m 3,4 km/h (1 Bft) N-NW 337 6,5 C 17,6 C 4,7 km/h (1 Bft)
26.05.2012 08:25 17,5 C 48 % 0,0 l/m 3,4 km/h (1 Bft) NW 315 6,4 C 17,6 C 5,1 km/h (1 Bft)
26.05.2012 08:30 18,0 C 47 % 0,0 l/m 3,2 km/h (1 Bft) W-NW 292 6,5 C 17,8 C 4,2 km/h (1 Bft)
26.05.2012 08:35 17,6 C 46 % 0,0 l/m 2,7 km/h (1 Bft) N-NW 337 6,5 C 17,9 C 5,1 km/h (1 Bft)
26.05.2012 08:40 17,3 C 47 % 0,0 l/m 2,4 km/h (1 Bft) SO 135 6,4 C 18,6 C 7,4 km/h (2 Bft)
26.05.2012 08:45 17,2 C 48 % 0,0 l/m 3,4 km/h (1 Bft) W 270 7,2 C 18,6 C 6,9 km/h (2 Bft)
26.05.2012 08:50 17,1 C 46 % 0,0 l/m 4,2 km/h (1 Bft) W 270 6,9 C 18,6 C 7,6 km/h (2 Bft)
26.05.2012 08:55 17,1 C 46 % 0,0 l/m 4,5 km/h (1 Bft) NW 315 6,8 C 18,4 C 3,7 km/h (1 Bft)
26.05.2012 09:00 17,1 C 46 % 0,0 l/m 4,5 km/h (1 Bft) W-SW 247 6,7 C 18,5 C 8,4 km/h (2 Bft)
26.05.2012 09:05 16,8 C 45 % 0,0 l/m 4,3 km/h (1 Bft) W 270 6,1 C 18,5 C 7,9 km/h (2 Bft)
26.05.2012 09:10 16,8 C 45 % 0,0 l/m 5,3 km/h (1 Bft) N-NW 337 6,0 C 18,0 C 9,3 km/h (2 Bft)
26.05.2012 09:15 16,8 C 46 % 0,0 l/m 5,5 km/h (1 Bft) W-SW 247 6,6 C 18,0 C 9,0 km/h (2 Bft)
26.05.2012 09:20 16,7 C 46 % 0,0 l/m 5,1 km/h (1 Bft) N-NO 22 5,8 C 18,4 C 10,5 km/h (2 Bft)
26.05.2012 09:25 17,0 C 46 % 0,0 l/m 4,8 km/h (1 Bft) W 270 6,4 C 18,6 C 9,2 km/h (2 Bft)
26.05.2012 09:30 17,2 C 46 % 0,0 l/m 5,0 km/h (1 Bft) N 360 6,6 C 18,7 C 12,9 km/h (3 Bft)
26.05.2012 09:35 17,2 C 46 % 0,0 l/m 5,6 km/h (1 Bft) W 270 6,8 C 18,6 C 7,1 km/h (2 Bft)
26.05.2012 09:40 17,4 C 46 % 0,0 l/m 5,5 km/h (1 Bft) N-NW 337 6,9 C 18,7 C 13,2 km/h (3 Bft)
26.05.2012 09:45 17,5 C 46 % 0,0 l/m 5,0 km/h (1 Bft) N-NW 337 6,8 C 18,9 C 3,9 km/h (1 Bft)
26.05.2012 09:50 17,8 C 46 % 0,0 l/m 4,5 km/h (1 Bft) S 180 7,1 C 19,4 C 4,5 km/h (1 Bft)
26.05.2012 09:55 18,0 C 46 % 0,0 l/m 4,8 km/h (1 Bft) W 270 7,1 C 19,6 C 10,8 km/h (2 Bft)
26.05.2012 10:00 18,0 C 46 % 0,0 l/m 6,0 km/h (2 Bft) W-SW 247 6,8 C 19,3 C 9,3 km/h (2 Bft)
26.05.2012 10:05 18,1 C 47 % 0,0 l/m 6,8 km/h (2 Bft) W-SW 247 7,2 C 18,9 C 15,3 km/h (3 Bft)
26.05.2012 10:10 18,2 C 48 % 0,0 l/m 6,6 km/h (2 Bft) W 270 7,6 C 18,8 C 3,9 km/h (1 Bft)
26.05.2012 10:15 18,4 C 47 % 0,0 l/m 6,1 km/h (2 Bft) W-NW 292 7,2 C 19,3 C 4,0 km/h (1 Bft)
26.05.2012 10:20 18,7 C 45 % 0,0 l/m 5,0 km/h (1 Bft) W 270 6,7 C 19,7 C 12,2 km/h (2 Bft)
26.05.2012 10:25 18,7 C 47 % 0,0 l/m 5,8 km/h (2 Bft) W-SW 247 7,2 C 19,5 C 8,7 km/h (2 Bft)
26.05.2012 10:30 18,9 C 46 % 0,0 l/m 6,3 km/h (2 Bft) S 180 7,4 C 19,7 C 4,7 km/h (1 Bft)
26.05.2012 10:35 18,8 C 46 % 0,0 l/m 5,3 km/h (1 Bft) N 360 6,9 C 20,2 C 5,3 km/h (1 Bft)
26.05.2012 10:40 19,1 C 45 % 0,0 l/m 5,1 km/h (1 Bft) N-NO 22 6,9 C 20,3 C 6,3 km/h (2 Bft)
26.05.2012 10:45 18,8 C 45 % 0,0 l/m 6,6 km/h (2 Bft) W-SW 247 6,6 C 19,9 C 8,4 km/h (2 Bft)
26.05.2012 10:50 19,6 C 46 % 0,0 l/m 6,4 km/h (2 Bft) SO 135 7,7 C 20,1 C 15,6 km/h (3 Bft)
26.05.2012 10:55 19,2 C 46 % 0,0 l/m 5,8 km/h (2 Bft) W-SW 247 7,3 C 20,5 C 5,3 km/h (1 Bft)
26.05.2012 11:00 18,9 C 43 % 0,0 l/m 5,6 km/h (1 Bft) S 180 6,0 C 20,5 C 6,0 km/h (2 Bft)
26.05.2012 11:05 19,6 C 44 % 0,0 l/m 6,1 km/h (2 Bft) W 270 7,0 C 20,6 C 10,1 km/h (2 Bft)
26.05.2012 11:10 18,7 C 41 % 0,0 l/m 7,7 km/h (2 Bft) W-SW 247 5,2 C 19,6 C 17,2 km/h (3 Bft)
26.05.2012 11:15 19,2 C 40 % 0,0 l/m 8,5 km/h (2 Bft) W-NW 292 5,3 C 19,1 C 14,2 km/h (3 Bft)
26.05.2012 11:20 18,6 C 39 % 0,0 l/m 9,3 km/h (2 Bft) W 270 4,4 C 18,6 C 18,0 km/h (3 Bft)
26.05.2012 11:25 18,8 C 39 % 0,0 l/m 9,3 km/h (2 Bft) O 90 4,6 C 18,7 C 10,0 km/h (2 Bft)
26.05.2012 11:30 19,2 C 41 % 0,0 l/m 7,4 km/h (2 Bft) W 270 5,6 C 19,5 C 10,5 km/h (2 Bft)
26.05.2012 11:35 19,5 C 39 % 0,0 l/m 7,6 km/h (2 Bft) W-NW 292 5,2 C 19,7 C 12,4 km/h (3 Bft)
26.05.2012 11:40 19,7 C 38 % 0,0 l/m 7,2 km/h (2 Bft) W-NW 292 5,0 C 20,0 C 6,1 km/h (2 Bft)
26.05.2012 11:45 19,5 C 37 % 0,0 l/m 7,4 km/h (2 Bft) W-NW 292 4,4 C 20,1 C 15,8 km/h (3 Bft)
26.05.2012 11:50 19,1 C 39 % 0,0 l/m 7,7 km/h (2 Bft) W-NW 292 4,8 C 19,8 C 9,2 km/h (2 Bft)
26.05.2012 11:55 19,4 C 38 % 0,0 l/m 7,7 km/h (2 Bft) W-NW 292 4,7 C 19,8 C 12,2 km/h (2 Bft)
26.05.2012 12:00 19,7 C 39 % 0,0 l/m 6,8 km/h (2 Bft) W-NW 292 5,4 C 20,3 C 12,9 km/h (3 Bft)
26.05.2012 12:05 19,7 C 38 % 0,0 l/m 6,3 km/h (2 Bft) W 270 5,0 C 20,6 C 9,3 km/h (2 Bft)
26.05.2012 12:10 19,9 C 38 % 0,0 l/m 6,8 km/h (2 Bft) W-SW 247 5,2 C 20,5 C 8,2 km/h (2 Bft)
26.05.2012 12:15 20,0 C 38 % 0,0 l/m 7,1 km/h (2 Bft) SW 225 5,2 C 20,4 C 5,3 km/h (1 Bft)
26.05.2012 12:20 20,4 C 35 % 0,0 l/m 6,1 km/h (2 Bft) N 360 4,4 C 20,9 C 5,8 km/h (2 Bft)
26.05.2012 12:25 20,2 C 35 % 0,0 l/m 6,9 km/h (2 Bft) W 270 4,2 C 20,9 C 15,9 km/h (3 Bft)
26.05.2012 12:30 20,3 C 37 % 0,0 l/m 7,7 km/h (2 Bft) O-NO 67 5,1 C 20,3 C 11,1 km/h (2 Bft)
26.05.2012 12:35 20,1 C 36 % 0,0 l/m 7,6 km/h (2 Bft) N-NW 337 4,6 C 20,4 C 7,1 km/h (2 Bft)
26.05.2012 12:40 19,9 C 36 % 0,0 l/m 5,8 km/h (2 Bft) NW 315 4,4 C 20,9 C 9,0 km/h (2 Bft)
26.05.2012 12:45 19,8 C 35 % 0,0 l/m 7,7 km/h (2 Bft) W-NW 292 3,9 C 20,2 C 13,4 km/h (3 Bft)
26.05.2012 12:50 20,3 C 36 % 0,0 l/m 7,1 km/h (2 Bft) S-SW 202 4,7 C 20,5 C 7,1 km/h (2 Bft)
26.05.2012 12:55 20,0 C 35 % 0,0 l/m 6,4 km/h (2 Bft) N-NW 337 4,1 C 20,9 C 3,9 km/h (1 Bft)
26.05.2012 13:00 20,0 C 34 % 0,0 l/m 6,1 km/h (2 Bft) S-SW 202 3,7 C 21,3 C 6,1 km/h (2 Bft)
26.05.2012 13:05 19,9 C 35 % 0,0 l/m 6,1 km/h (2 Bft) W-SW 247 4,0 C 21,4 C 13,7 km/h (3 Bft)
26.05.2012 13:10 20,0 C 36 % 0,0 l/m 6,4 km/h (2 Bft) W-NW 292 4,5 C 21,1 C 19,2 km/h (3 Bft)
26.05.2012 13:15 20,4 C 37 % 0,0 l/m 6,1 km/h (2 Bft) N-NW 337 5,2 C 21,5 C 10,8 km/h (2 Bft)
26.05.2012 13:20 20,2 C 35 % 0,0 l/m 6,3 km/h (2 Bft) NW 315 4,2 C 21,2 C 5,6 km/h (1 Bft)
26.05.2012 13:25 20,0 C 35 % 0,0 l/m 7,4 km/h (2 Bft) W-NW 292 4,1 C 20,5 C 8,7 km/h (2 Bft)
26.05.2012 13:30 20,1 C 35 % 0,0 l/m 7,7 km/h (2 Bft) N 360 4,2 C 20,1 C 19,3 km/h (3 Bft)
26.05.2012 13:35 19,9 C 36 % 0,0 l/m 7,9 km/h (2 Bft) SW 225 4,4 C 19,7 C 13,5 km/h (3 Bft)
26.05.2012 13:40 20,0 C 34 % 0,0 l/m 7,4 km/h (2 Bft) W 270 3,7 C 20,2 C 7,7 km/h (2 Bft)
26.05.2012 13:45 19,5 C 35 % 0,0 l/m 7,1 km/h (2 Bft) W 270 3,6 C 20,6 C 14,5 km/h (3 Bft)
26.05.2012 13:50 20,1 C 34 % 0,0 l/m 6,6 km/h (2 Bft) N-NO 22 3,7 C 21,2 C 6,9 km/h (2 Bft)
26.05.2012 13:55 20,0 C 35 % 0,0 l/m 6,8 km/h (2 Bft) W-NW 292 4,1 C 21,1 C 8,5 km/h (2 Bft)
26.05.2012 14:00 20,4 C 34 % 0,0 l/m 6,9 km/h (2 Bft) W-NW 292 4,0 C 21,1 C 7,1 km/h (2 Bft)
26.05.2012 14:05 20,6 C 35 % 0,0 l/m 6,6 km/h (2 Bft) W 270 4,6 C 21,4 C 8,9 km/h (2 Bft)
26.05.2012 14:10 20,5 C 33 % 0,0 l/m 6,8 km/h (2 Bft) W-NW 292 3,7 C 21,4 C 9,7 km/h (2 Bft)
26.05.2012 14:15 20,2 C 33 % 0,0 l/m 7,1 km/h (2 Bft) S-SO 157 3,4 C 21,1 C 5,5 km/h (1 Bft)
26.05.2012 14:20 20,0 C 32 % 0,0 l/m 6,8 km/h (2 Bft) W-SW 247 2,8 C 21,3 C 4,3 km/h (1 Bft)
26.05.2012 14:25 19,9 C 32 % 0,0 l/m 6,6 km/h (2 Bft) W-NW 292 2,7 C 21,3 C 8,4 km/h (2 Bft)
26.05.2012 14:30 20,1 C 32 % 0,0 l/m 6,3 km/h (2 Bft) N-NW 337 2,9 C 21,6 C 8,4 km/h (2 Bft)
26.05.2012 14:35 20,4 C 32 % 0,0 l/m 6,3 km/h (2 Bft) W-NW 292 3,2 C 21,5 C 9,2 km/h (2 Bft)
26.05.2012 14:40 20,3 C 32 % 0,0 l/m 7,9 km/h (2 Bft) S-SW 202 3,1 C 20,8 C 16,3 km/h (3 Bft)
26.05.2012 14:45 20,5 C 31 % 0,0 l/m 8,9 km/h (2 Bft) W-NW 292 2,8 C 20,2 C 11,1 km/h (2 Bft)
26.05.2012 14:50 20,4 C 31 % 0,0 l/m 7,4 km/h (2 Bft) NO 45 2,7 C 21,0 C 6,9 km/h (2 Bft)
26.05.2012 14:55 20,3 C 32 % 0,0 l/m 6,6 km/h (2 Bft) W-NW 292 3,1 C 21,4 C 7,7 km/h (2 Bft)
26.05.2012 15:00 20,4 C 34 % 0,0 l/m 6,4 km/h (2 Bft) W-NW 292 4,0 C 21,9 C 14,5 km/h (3 Bft)
26.05.2012 15:05 20,7 C 34 % 0,0 l/m 6,4 km/h (2 Bft) SW 225 4,3 C 22,1 C 12,4 km/h (3 Bft)
26.05.2012 15:10 20,3 C 33 % 0,0 l/m 8,9 km/h (2 Bft) S-SO 157 3,5 C 20,6 C 9,8 km/h (2 Bft)
26.05.2012 15:15 20,6 C 34 % 0,0 l/m 8,7 km/h (2 Bft) S 180 4,2 C 20,7 C 6,3 km/h (2 Bft)
26.05.2012 15:20 20,1 C 34 % 0,0 l/m 7,9 km/h (2 Bft) SO 135 3,7 C 20,9 C 9,2 km/h (2 Bft)
26.05.2012 15:25 20,4 C 32 % 0,0 l/m 8,2 km/h (2 Bft) W 270 3,2 C 20,9 C 12,2 km/h (2 Bft)
26.05.2012 15:30 20,6 C 33 % 0,0 l/m 7,1 km/h (2 Bft) W-NW 292 3,8 C 21,6 C 12,9 km/h (3 Bft)
26.05.2012 15:35 20,3 C 33 % 0,0 l/m 7,6 km/h (2 Bft) S-SW 202 3,5 C 21,2 C 14,6 km/h (3 Bft)
26.05.2012 15:40 20,5 C 33 % 0,0 l/m 8,2 km/h (2 Bft) W-NW 292 3,7 C 20,9 C 13,5 km/h (3 Bft)
26.05.2012 15:45 20,3 C 33 % 0,0 l/m 8,4 km/h (2 Bft) W-NW 292 3,5 C 20,7 C 15,3 km/h (3 Bft)
26.05.2012 15:50 20,4 C 34 % 0,0 l/m 8,4 km/h (2 Bft) NW 315 4,0 C 20,8 C 7,7 km/h (2 Bft)
26.05.2012 15:55 20,2 C 33 % 0,0 l/m 7,6 km/h (2 Bft) NW 315 3,4 C 21,3 C 11,9 km/h (2 Bft)
26.05.2012 16:00 20,2 C 34 % 0,0 l/m 6,9 km/h (2 Bft) W-SW 247 3,8 C 21,4 C 5,0 km/h (1 Bft)
26.05.2012 16:05 20,4 C 35 % 0,0 l/m 6,8 km/h (2 Bft) W-NW 292 4,4 C 21,7 C 16,7 km/h (3 Bft)
26.05.2012 16:10 20,2 C 35 % 0,0 l/m 6,3 km/h (2 Bft) W-NW 292 4,2 C 21,8 C 9,5 km/h (2 Bft)
26.05.2012 16:15 20,1 C 35 % 0,0 l/m 7,1 km/h (2 Bft) NW 315 4,2 C 21,6 C 14,5 km/h (3 Bft)
26.05.2012 16:20 19,9 C 34 % 0,0 l/m 8,2 km/h (2 Bft) W-SW 247 3,6 C 21,0 C 9,7 km/h (2 Bft)
26.05.2012 16:25 19,6 C 33 % 0,0 l/m 8,4 km/h (2 Bft) W-SW 247 2,9 C 20,8 C 8,0 km/h (2 Bft)
26.05.2012 16:30 19,6 C 34 % 0,0 l/m 8,2 km/h (2 Bft) W 270 3,3 C 20,9 C 24,6 km/h (4 Bft)
26.05.2012 16:35 19,2 C 34 % 0,0 l/m 9,3 km/h (2 Bft) W 270 3,0 C 20,3 C 12,2 km/h (2 Bft)
26.05.2012 16:40 19,2 C 35 % 0,0 l/m 8,5 km/h (2 Bft) W-NW 292 3,4 C 20,4 C 11,3 km/h (2 Bft)
26.05.2012 16:45 18,9 C 34 % 0,0 l/m 7,4 km/h (2 Bft) W-NW 292 2,7 C 20,9 C 8,4 km/h (2 Bft)
26.05.2012 16:50 18,6 C 36 % 0,0 l/m 6,9 km/h (2 Bft) W 270 3,2 C 21,3 C 16,3 km/h (3 Bft)
26.05.2012 16:55 18,4 C 36 % 0,0 l/m 6,6 km/h (2 Bft) W 270 3,1 C 21,5 C 4,7 km/h (1 Bft)
26.05.2012 17:00 18,3 C 36 % 0,0 l/m 7,7 km/h (2 Bft) W 270 3,0 C 21,0 C 6,9 km/h (2 Bft)
26.05.2012 17:05 18,3 C 37 % 0,0 l/m 8,0 km/h (2 Bft) W 270 3,4 C 20,9 C 9,5 km/h (2 Bft)
26.05.2012 17:10 18,0 C 36 % 0,0 l/m 7,9 km/h (2 Bft) W 270 2,7 C 20,9 C 10,6 km/h (2 Bft)
26.05.2012 17:15 17,9 C 37 % 0,0 l/m 7,9 km/h (2 Bft) W-SW 247 3,0 C 21,0 C 10,6 km/h (2 Bft)
26.05.2012 17:20 17,8 C 37 % 0,0 l/m 7,1 km/h (2 Bft) W-NW 292 2,9 C 21,2 C 9,7 km/h (2 Bft)
26.05.2012 17:25 17,7 C 36 % 0,0 l/m 6,9 km/h (2 Bft) W 270 2,4 C 21,2 C 5,6 km/h (1 Bft)
26.05.2012 17:30 17,8 C 37 % 0,0 l/m 6,8 km/h (2 Bft) W-SW 247 2,9 C 21,4 C 5,3 km/h (1 Bft)
26.05.2012 17:35 17,7 C 38 % 0,0 l/m 6,1 km/h (2 Bft) W-NW 292 3,2 C 21,7 C 9,8 km/h (2 Bft)
26.05.2012 17:40 17,5 C 38 % 0,0 l/m 6,3 km/h (2 Bft) W-NW 292 3,0 C 21,5 C 14,5 km/h (3 Bft)
26.05.2012 17:45 17,6 C 39 % 0,0 l/m 7,1 km/h (2 Bft) N-NW 337 3,5 C 20,9 C 7,6 km/h (2 Bft)
26.05.2012 17:50 17,3 C 38 % 0,0 l/m 7,7 km/h (2 Bft) N 360 2,9 C 20,6 C 13,0 km/h (3 Bft)
26.05.2012 17:55 17,3 C 38 % 0,0 l/m 6,9 km/h (2 Bft) W-NW 292 2,9 C 20,8 C 2,9 km/h (1 Bft)
26.05.2012 18:00 17,3 C 38 % 0,0 l/m 7,4 km/h (2 Bft) W 270 2,9 C 20,6 C 11,3 km/h (2 Bft)
26.05.2012 18:05 17,4 C 39 % 0,0 l/m 6,8 km/h (2 Bft) W-NW 292 3,3 C 20,9 C 9,0 km/h (2 Bft)
26.05.2012 18:10 17,4 C 38 % 0,0 l/m 6,6 km/h (2 Bft) W-SW 247 2,9 C 20,9 C 11,3 km/h (2 Bft)
26.05.2012 18:15 17,3 C 38 % 0,0 l/m 6,4 km/h (2 Bft) W 270 2,9 C 21,1 C 9,8 km/h (2 Bft)
26.05.2012 18:20 17,4 C 39 % 0,0 l/m 6,4 km/h (2 Bft) W-SW 247 3,3 C 21,0 C 4,8 km/h (1 Bft)
26.05.2012 18:25 17,4 C 39 % 0,0 l/m 6,8 km/h (2 Bft) NO 45 3,3 C 20,8 C 9,8 km/h (2 Bft)
26.05.2012 18:30 17,4 C 39 % 0,0 l/m 6,4 km/h (2 Bft) W-NW 292 3,3 C 20,8 C 10,0 km/h (2 Bft)
26.05.2012 18:35 17,2 C 38 % 0,0 l/m 6,8 km/h (2 Bft) W 270 2,8 C 20,7 C 7,9 km/h (2 Bft)
26.05.2012 18:40 17,1 C 38 % 0,0 l/m 6,4 km/h (2 Bft) W-NW 292 2,7 C 20,6 C 9,8 km/h (2 Bft)
26.05.2012 18:45 17,1 C 39 % 0,0 l/m 5,3 km/h (1 Bft) SW 225 3,0 C 20,7 C 4,3 km/h (1 Bft)
26.05.2012 18:50 17,0 C 38 % 0,0 l/m 6,3 km/h (2 Bft) SW 225 2,6 C 20,7 C 13,4 km/h (3 Bft)
26.05.2012 18:55 16,9 C 39 % 0,0 l/m 7,9 km/h (2 Bft) W-SW 247 2,9 C 19,6 C 5,3 km/h (1 Bft)
26.05.2012 19:00 16,6 C 38 % 0,0 l/m 7,6 km/h (2 Bft) W-SW 247 2,2 C 19,6 C 4,7 km/h (1 Bft)
26.05.2012 19:05 16,5 C 37 % 0,0 l/m 6,6 km/h (2 Bft) NW 315 1,8 C 19,9 C 10,9 km/h (2 Bft)
26.05.2012 19:10 16,5 C 38 % 0,0 l/m 6,8 km/h (2 Bft) W-SW 247 2,1 C 19,5 C 7,1 km/h (2 Bft)
26.05.2012 19:15 16,3 C 39 % 0,0 l/m 6,3 km/h (2 Bft) NO 45 2,3 C 19,7 C 5,3 km/h (1 Bft)
26.05.2012 19:20 16,1 C 40 % 0,0 l/m 5,0 km/h (1 Bft) W-SW 247 2,5 C 19,6 C 6,1 km/h (2 Bft)
26.05.2012 19:25 16,0 C 40 % 0,0 l/m 5,1 km/h (1 Bft) NO 45 2,4 C 19,4 C 8,9 km/h (2 Bft)
26.05.2012 19:30 16,0 C 40 % 0,0 l/m 5,0 km/h (1 Bft) W-NW 292 2,4 C 19,3 C 6,3 km/h (2 Bft)
26.05.2012 19:35 15,9 C 42 % 0,0 l/m 5,1 km/h (1 Bft) SO 135 3,0 C 19,1 C 5,5 km/h (1 Bft)
26.05.2012 19:40 15,8 C 42 % 0,0 l/m 5,3 km/h (1 Bft) W 270 2,9 C 18,9 C 10,8 km/h (2 Bft)
26.05.2012 19:45 15,6 C 42 % 0,0 l/m 4,7 km/h (1 Bft) N 360 2,7 C 18,7 C 2,3 km/h (1 Bft)
26.05.2012 19:50 15,3 C 42 % 0,0 l/m 4,0 km/h (1 Bft) S-SW 202 2,5 C 18,1 C 4,2 km/h (1 Bft)
26.05.2012 19:55 15,4 C 42 % 0,0 l/m 4,0 km/h (1 Bft) W 270 2,6 C 17,9 C 7,6 km/h (2 Bft)
26.05.2012 20:00 15,1 C 43 % 0,0 l/m 4,5 km/h (1 Bft) W-NW 292 2,6 C 17,7 C 1,6 km/h (1 Bft)
26.05.2012 20:05 14,8 C 44 % 0,0 l/m 3,7 km/h (1 Bft) N-NW 337 2,7 C 17,3 C 3,2 km/h (1 Bft)
26.05.2012 20:10 14,4 C 46 % 0,0 l/m 3,4 km/h (1 Bft) N-NW 337 2,9 C 16,5 C 3,5 km/h (1 Bft)
26.05.2012 20:15 14,5 C 46 % 0,0 l/m 3,9 km/h (1 Bft) W 270 3,0 C 16,5 C 7,2 km/h (2 Bft)
26.05.2012 20:20 14,3 C 46 % 0,0 l/m 3,4 km/h (1 Bft) N 360 2,8 C 16,5 C 3,5 km/h (1 Bft)
26.05.2012 20:25 14,3 C 46 % 0,0 l/m 3,4 km/h (1 Bft) W 270 2,8 C 16,5 C 6,3 km/h (2 Bft)
26.05.2012 20:30 13,9 C 47 % 0,0 l/m 2,3 km/h (1 Bft) N 360 2,8 C 16,3 C 0,0 km/h (0 Bft)
26.05.2012 20:35 13,5 C 47 % 0,0 l/m 1,4 km/h (1 Bft) O-SO 112 2,4 C 16,1 C 7,4 km/h (2 Bft)
26.05.2012 20:40 13,1 C 48 % 0,0 l/m 1,6 km/h (1 Bft) N 360 2,3 C 15,7 C 1,8 km/h (1 Bft)
26.05.2012 20:45 12,9 C 49 % 0,0 l/m 1,8 km/h (1 Bft) NO 45 2,5 C 15,3 C 2,3 km/h (1 Bft)
26.05.2012 20:50 12,7 C 49 % 0,0 l/m 0,8 km/h (0 Bft) N 360 2,3 C 14,5 C 2,6 km/h (1 Bft)
26.05.2012 20:55 12,5 C 51 % 0,0 l/m 0,6 km/h (0 Bft) N-NO 22 2,6 C 13,8 C 0,0 km/h (0 Bft)
26.05.2012 21:00 12,0 C 52 % 0,0 l/m 0,5 km/h (0 Bft) NO 45 2,5 C 12,7 C 0,0 km/h (0 Bft)
26.05.2012 21:05 11,9 C 52 % 0,0 l/m 0,3 km/h (0 Bft) N-NO 22 2,4 C 12,2 C 0,0 km/h (0 Bft)
26.05.2012 21:10 11,8 C 53 % 0,0 l/m 0,2 km/h (0 Bft) N 360 2,5 C 11,5 C 0,0 km/h (0 Bft)
26.05.2012 21:15 11,6 C 54 % 0,0 l/m 0,3 km/h (0 Bft) NO 45 2,6 C 11,3 C 2,1 km/h (1 Bft)
26.05.2012 21:20 11,3 C 55 % 0,0 l/m 0,3 km/h (0 Bft) NO 45 2,6 C 10,9 C 0,0 km/h (0 Bft)
26.05.2012 21:25 11,1 C 55 % 0,0 l/m 0,5 km/h (0 Bft) N-NO 22 2,4 C 10,7 C 1,8 km/h (1 Bft)
26.05.2012 21:30 10,8 C 57 % 0,0 l/m 0,5 km/h (0 Bft) NO 45 2,6 C 10,3 C 2,3 km/h (1 Bft)
26.05.2012 21:35 10,7 C 57 % 0,0 l/m 0,5 km/h (0 Bft) NO 45 2,5 C 10,1 C 0,0 km/h (0 Bft)
26.05.2012 21:40 10,1 C 59 % 0,0 l/m 0,2 km/h (0 Bft) O 90 2,5 C 9,8 C 0,0 km/h (0 Bft)
26.05.2012 21:45 9,9 C 59 % 0,0 l/m 0,0 km/h (0 Bft) N-NO 22 2,3 C 9,5 C 0,0 km/h (0 Bft)
26.05.2012 21:50 9,4 C 60 % 0,0 l/m 0,3 km/h (0 Bft) NO 45 2,0 C 8,9 C 2,1 km/h (1 Bft)
26.05.2012 21:55 8,6 C 63 % 0,0 l/m 0,5 km/h (0 Bft) N-NO 22 2,0 C 8,5 C 0,0 km/h (0 Bft)
26.05.2012 22:00 8,8 C 65 % 0,0 l/m 0,2 km/h (0 Bft) NO 45 2,6 C 7,9 C 0,0 km/h (0 Bft)
26.05.2012 22:05 9,0 C 64 % 0,0 l/m 0,2 km/h (0 Bft) NO 45 2,6 C 7,7 C 1,8 km/h (1 Bft)
26.05.2012 22:10 9,1 C 63 % 0,0 l/m 0,6 km/h (0 Bft) SO 135 2,4 C 7,9 C 0,0 km/h (0 Bft)
26.05.2012 22:15 8,2 C 64 % 0,0 l/m 0,5 km/h (0 Bft) SO 135 1,8 C 7,6 C 0,0 km/h (0 Bft)
26.05.2012 22:20 7,6 C 67 % 0,0 l/m 0,0 km/h (0 Bft) N 360 1,9 C 7,1 C 0,0 km/h (0 Bft)
26.05.2012 22:25 7,9 C 68 % 0,0 l/m 0,0 km/h (0 Bft) N-NO 22 2,4 C 6,9 C 0,0 km/h (0 Bft)
26.05.2012 22:30 7,9 C 69 % 0,0 l/m 0,5 km/h (0 Bft) NO 45 2,6 C 6,8 C 2,3 km/h (1 Bft)
26.05.2012 22:35 7,6 C 69 % 0,0 l/m 0,5 km/h (0 Bft) NO 45 2,3 C 6,8 C 0,0 km/h (0 Bft)
26.05.2012 22:40 7,8 C 69 % 0,0 l/m 0,3 km/h (0 Bft) N-NO 22 2,5 C 6,7 C 0,0 km/h (0 Bft)
26.05.2012 22:45 7,6 C 70 % 0,0 l/m 0,5 km/h (0 Bft) O 90 2,5 C 6,7 C 1,9 km/h (1 Bft)
26.05.2012 22:50 8,0 C 69 % 0,0 l/m 0,8 km/h (0 Bft) NO 45 2,7 C 6,7 C 1,6 km/h (1 Bft)
26.05.2012 22:55 8,0 C 69 % 0,0 l/m 1,0 km/h (0 Bft) O 90 2,7 C 6,7 C 0,0 km/h (0 Bft)
26.05.2012 23:00 7,3 C 71 % 0,0 l/m 0,5 km/h (0 Bft) N-NW 337 2,4 C 6,4 C 0,0 km/h (0 Bft)
26.05.2012 23:05 7,2 C 70 % 0,0 l/m 0,0 km/h (0 Bft) N-NW 337 2,1 C 6,1 C 0,0 km/h (0 Bft)
26.05.2012 23:10 6,7 C 71 % 0,0 l/m 0,0 km/h (0 Bft) NW 315 1,8 C 5,8 C 0,0 km/h (0 Bft)
26.05.2012 23:15 6,3 C 70 % 0,0 l/m 0,0 km/h (0 Bft) S-SW 202 1,2 C 5,6 C 0,0 km/h (0 Bft)
26.05.2012 23:20 6,1 C 71 % 0,0 l/m 0,0 km/h (0 Bft) N-NO 22 1,2 C 5,4 C 1,6 km/h (1 Bft)
26.05.2012 23:25 6,4 C 71 % 0,0 l/m 0,2 km/h (0 Bft) N 360 1,5 C 5,5 C 0,0 km/h (0 Bft)
26.05.2012 23:30 6,6 C 71 % 0,0 l/m 0,2 km/h (0 Bft) N 360 1,7 C 5,8 C 0,0 km/h (0 Bft)
26.05.2012 23:35 6,6 C 72 % 0,0 l/m 0,2 km/h (0 Bft) N-NO 22 1,9 C 5,9 C 0,0 km/h (0 Bft)
26.05.2012 23:40 6,2 C 71 % 0,0 l/m 0,0 km/h (0 Bft) W-SW 247 1,3 C 6,0 C 0,0 km/h (0 Bft)
26.05.2012 23:45 5,9 C 73 % 0,0 l/m 0,2 km/h (0 Bft) N 360 1,4 C 5,8 C 2,1 km/h (1 Bft)
26.05.2012 23:50 5,7 C 75 % 0,0 l/m 0,3 km/h (0 Bft) W-NW 292 1,6 C 5,6 C 0,0 km/h (0 Bft)
26.05.2012 23:55 5,6 C 74 % 0,0 l/m 0,3 km/h (0 Bft) S-SW 202 1,3 C 5,4 C 0,0 km/h (0 Bft)
_ Min-Zeit 05:50 14:50 - 23:40 - - 05:25 05:15 23:55
Minimum _ 2,9 C 31 % - 0,0 km/h (0 Bft) - - 1,2 C 2,3 C 0,0 km/h (0 Bft)
_ Max-Zeit 15:05 06:15 23:55 16:35 - - 07:05 15:05 16:30
Maximum _ 20,7 C 89 % 0,0 l/m 9,3 km/h
W (2 Bft)
- - 7,7 C 22,1 C 24,6 km/h
W (4 Bft)
Durchschnitt _ 13,0 C 57 % #0,0 l/m 3,4 km/h (1 Bft) W-NW - 3,6 C 13,8 C 4,9 km/h (1 Bft)